[[{"header":{"parameterUnit":"m.s-1","parameterCategory":1,"la1":30.2991,"la2":30.254,"lo1":-89.0895,"lo2":-89.0444,"dy":0.0017,"dx":0.0017,"nx":28,"ny":28,"refTime":"2026-01-10T09:00:00:Z","depth":0,"parameterNumber":2,"parameterNumberName":"U-component_of_WINDS"},"data":[0,0,0,0,0,0,0,0,0,0,0,0,0,0,0,0,0,0,0,0,0,0,0,0,0,0,0,0,0,0,0,0,0,0,0,0,0,0,0,0,0,0,0,0,0,0,0,0,0,0,0,0,0,0,0,0,0,0,1.8984,1.8984,0,1.9007,1.9007,1.9007,1.8998,1.8998,1.8997,1.8996,1.9019,1.902,1.9021,0,0,0,0,0,0,0,0,0,0,0,0,0,1.8933,1.8934,1.8984,1.8984,1.8985,1.9007,1.9007,1.9007,1.8998,1.8997,1.8997,1.8996,1.9019,1.902,1.9021,0,0,0,0,0,0,0,0,0,0,0,0,0,1.8955,1.8934,1.8984,1.8983,1.8983,1.9007,1.9007,1.9007,1.8998,1.8997,1.8997,1.8996,1.9018,1.902,1.9021,1.9047,0,0,1.9026,1.9027,0,0,0,0,0,0,0,0,1.8954,1.8957,1.8983,1.8983,1.8983,1.8999,1.8997,1.9021,1.8998,1.8992,1.8996,1.8996,1.9013,1.9015,1.9021,1.9049,1.9049,1.9026,1.9027,1.9028,1.9029,0,0,0,0,0,0,0,1.8953,1.8956,1.8993,1.8983,1.8983,1.8981,1.8983,1.9002,1.9007,1.8993,1.8992,1.8995,1.9013,1.9019,1.9021,1.905,1.9026,1.9028,1.9029,1.903,1.9102,1.9103,0,0,0,0,0,0,1.8951,1.8955,1.8992,1.8994,1.8966,1.8983,1.8985,1.8994,1.9007,1.9008,1.8996,1.8995,1.9017,1.9019,1.9022,1.9054,1.9028,1.903,1.9031,1.9101,1.9102,1.9103,0,0,0,0,0,0,1.895,1.8955,1.8991,1.8974,1.8979,1.8984,1.8995,1.8995,1.9002,1.9009,1.901,1.9001,1.9016,1.902,1.9042,1.9055,1.903,1.9032,1.91,1.9101,1.9102,1.9118,0,0,0,0,0,0,1.8949,1.8954,1.8964,1.8975,1.898,1.901,1.8996,1.8996,1.9005,1.9003,1.9014,1.9015,1.9016,1.9039,1.9043,1.9057,1.9033,1.9099,1.91,1.9102,1.9116,1.912,1.9123,0,0,0,0,0,1.8947,1.8967,1.8964,1.8969,1.8992,1.9011,1.9014,1.9015,1.9006,1.9016,1.9021,1.9015,1.9053,1.9042,1.9046,1.906,1.9098,1.91,1.9102,1.9115,1.9119,1.9123,0,0,0,0,0,0,1.8957,1.8968,1.8965,1.899,1.9,1.9009,1.9022,1.9019,1.9031,1.9029,1.9029,1.9032,1.9055,1.906,1.9047,1.9087,1.9074,1.9077,1.9082,1.9086,1.909,1.9088,1.9035,0,0,0,0,0,1.8962,1.8976,1.8986,1.9006,1.9011,1.9016,1.9024,1.9024,1.9034,1.9038,1.9044,1.9054,1.9069,1.9078,1.9091,1.9118,1.912,1.913,1.9133,1.9135,1.9138,1.9153,1.9157,1.911,1.911,1.911,0,0,1.8972,1.898,1.8989,1.9008,1.9016,1.9031,1.9019,1.9036,1.9047,1.9041,1.9062,1.9067,1.9078,1.9103,1.9114,1.9108,1.9152,1.9138,1.914,1.9141,1.9156,1.916,1.9164,1.9111,1.9111,1.9111,0,0,1.8999,1.9006,1.9024,1.9033,1.9045,1.9049,1.9053,1.9064,1.9067,1.9089,1.9085,1.9099,1.9123,1.9132,1.9139,1.9172,1.9167,1.9176,1.9192,1.9207,1.9211,1.9214,1.9226,1.923,1.9179,1.9179,1.9179,0,1.901,1.9033,1.9034,1.9051,1.906,1.9056,1.9075,1.9083,1.9099,1.9105,1.9098,1.913,1.9137,1.9164,1.9172,1.9178,1.9184,1.9174,1.921,1.9214,1.9217,1.9228,1.9233,1.918,1.918,1.918,1.9179,0,1.9046,1.9062,1.9075,1.9092,1.9102,1.912,1.9125,1.9135,1.9135,1.9139,1.9162,1.9171,1.9187,1.9193,1.9193,1.9221,1.9217,1.921,1.9197,1.9222,1.9233,1.9237,1.9181,1.9181,1.9181,1.918,0,0,1.9077,1.9096,1.9101,1.9109,1.9123,1.9136,1.9154,1.917,1.9179,1.9191,1.9207,1.9229,1.9223,1.9232,1.9233,1.9246,1.9272,1.9238,1.9238,1.9244,1.9304,1.9308,1.9313,1.9269,1.927,1.9271,1.9303,0,1.9105,1.9137,1.914,1.9169,1.9185,1.9182,1.9198,1.9209,1.9214,1.9228,1.9234,1.925,1.9241,1.9247,1.926,1.9266,1.9284,1.9264,1.9284,1.9285,1.928,1.9319,1.9323,1.9352,1.9307,1.9308,1.9308,0,1.9141,1.9155,1.9185,1.9199,1.9206,1.922,1.9236,1.925,1.9262,1.9265,1.9276,1.9275,1.9295,1.9282,1.931,1.9296,1.9305,1.9309,1.9311,1.9312,1.9297,1.9321,1.9362,1.9366,1.9315,1.9314,1.9314,0,1.9161,1.9187,1.9209,1.9216,1.9233,1.9243,1.925,1.9262,1.9272,1.9287,1.9293,1.9309,1.9318,1.9331,1.9335,1.9325,1.9362,1.9349,1.9365,1.9365,1.9372,1.9371,1.9415,1.9379,1.9379,1.9378,1.9378,0,1.9191,1.921,1.9219,1.9232,1.9254,1.9258,1.9279,1.9286,1.9297,1.9312,1.9311,1.9326,1.933,1.9346,1.9349,1.9372,1.9375,1.9378,1.9379,1.9378,1.9378,1.9383,1.9381,1.938,1.9379,1.9379,1.9379,0,1.9216,1.9223,1.9247,1.9261,1.9265,1.9281,1.9293,1.9306,1.9312,1.9331,1.9336,1.9345,1.9363,1.9369,1.9391,1.9393,1.942,1.9418,1.9415,1.9415,1.943,1.9429,1.9478,1.9485,1.9445,1.9445,1.9446,0,1.9234,1.9249,1.9265,1.9276,1.9284,1.9301,1.9311,1.9316,1.9327,1.9344,1.9356,1.9374,1.9389,1.9418,1.9427,1.9444,1.9443,1.9459,1.9445,1.9445,1.9443,1.9442,1.9444,1.9461,1.9462,1.9462,1.9462,0,1.9266,1.9269,1.9285,1.9302,1.9315,1.9329,1.9342,1.9351,1.9358,1.9371,1.939,1.9402,1.9425,1.9443,1.9461,1.9468,1.9467,1.9467,1.9472,1.947,1.9468,1.947,1.9422,1.9466,1.9465,1.9465,1.9465,1.9465,1.9288,1.9302,1.9316,1.9334,1.9345,1.9358,1.9371,1.938,1.9396,1.9415,1.9417,1.9438,1.9452,1.9476,1.9485,1.9501,1.9497,1.9503,1.9505,1.9506,1.9507,1.9466,1.9505,1.9505,1.9505,1.9504,1.9504,0,1.932,1.933,1.9346,1.9366,1.938,1.9378,1.9394,1.9406,1.9424,1.9437,1.9453,1.9475,1.9493,1.9504,1.9523,1.9534,1.9534,1.9539,1.9537,1.9539,1.951,1.9505,1.9539,1.9539,1.9539,1.9539,1.9539,1.9538,1.9339,1.9362,1.9367,1.9396,1.9405,1.9426,1.9435,1.9447,1.9458,1.9483,1.9499,1.9506,1.9519,1.9538,1.9555,1.9558,1.9565,1.957,1.9573,1.9545,1.9541,1.9538,1.9533,1.9572,1.9572,1.96,1.9601,1.9601]},{"header":{"parameterUnit":"m.s-1","parameterCategory":1,"la1":30.2991,"la2":30.254,"lo1":-89.0895,"lo2":-89.0444,"dy":0.0017,"dx":0.0017,"nx":28,"ny":28,"refTime":"2026-01-10T09:00:00:Z","depth":0,"parameterNumber":3,"parameterNumberName":"V-component_of_WINDS"},"data":[0,0,0,0,0,0,0,0,0,0,0,0,0,0,0,0,0,0,0,0,0,0,0,0,0,0,0,0,0,0,0,0,0,0,0,0,0,0,0,0,0,0,0,0,0,0,0,0,0,0,0,0,0,0,0,0,0,0,-8.6347,-8.6349,0,-8.6523,-8.6525,-8.6527,-8.6461,-8.6457,-8.6452,-8.6449,-8.6622,-8.663,-8.6638,0,0,0,0,0,0,0,0,0,0,0,0,0,-8.5947,-8.5954,-8.6347,-8.6349,-8.6351,-8.6523,-8.6525,-8.6528,-8.6461,-8.6456,-8.6451,-8.6447,-8.6619,-8.6629,-8.6639,0,0,0,0,0,0,0,0,0,0,0,0,0,-8.6121,-8.5957,-8.6347,-8.6339,-8.634,-8.6523,-8.6525,-8.6528,-8.6462,-8.6456,-8.645,-8.6445,-8.6616,-8.6628,-8.664,-8.6838,0,0,-8.6678,-8.6684,0,0,0,0,0,0,0,0,-8.6111,-8.6136,-8.6338,-8.634,-8.6341,-8.6464,-8.6448,-8.6632,-8.6464,-8.6416,-8.6449,-8.6442,-8.6574,-8.6589,-8.6635,-8.6846,-8.6854,-8.668,-8.6687,-8.6693,-8.6696,0,0,0,0,0,0,0,-8.6099,-8.6128,-8.6416,-8.6341,-8.6343,-8.6325,-8.6343,-8.6482,-8.6526,-8.6419,-8.6415,-8.6437,-8.6573,-8.6623,-8.6639,-8.6856,-8.6679,-8.669,-8.6698,-8.6703,-8.7239,-8.7246,0,0,0,0,0,0,-8.6088,-8.6118,-8.6411,-8.6422,-8.621,-8.6337,-8.6357,-8.6431,-8.6524,-8.6533,-8.6442,-8.6433,-8.6605,-8.6624,-8.6645,-8.6884,-8.6692,-8.6704,-8.6711,-8.7233,-8.7241,-8.7248,0,0,0,0,0,0,-8.6079,-8.6114,-8.6404,-8.6269,-8.6305,-8.635,-8.6433,-8.6437,-8.6487,-8.6542,-8.6548,-8.6486,-8.6601,-8.6627,-8.6791,-8.6889,-8.671,-8.6721,-8.7225,-8.7235,-8.7245,-8.7363,0,0,0,0,0,0,-8.6068,-8.6112,-8.6189,-8.6271,-8.6312,-8.655,-8.6439,-8.6445,-8.651,-8.65,-8.6584,-8.6592,-8.6598,-8.6773,-8.6804,-8.6903,-8.6731,-8.7216,-8.7229,-8.7241,-8.735,-8.7376,-8.7397,0,0,0,0,0,-8.6054,-8.6213,-8.6193,-8.6229,-8.641,-8.6556,-8.6579,-8.6584,-8.6518,-8.6595,-8.663,-8.659,-8.6873,-8.679,-8.6825,-8.6929,-8.721,-8.7226,-8.724,-8.734,-8.7371,-8.7397,0,0,0,0,0,0,-8.6138,-8.6224,-8.6202,-8.6393,-8.6468,-8.6544,-8.6641,-8.6616,-8.6709,-8.6696,-8.6697,-8.6716,-8.6886,-8.6923,-8.683,-8.7126,-8.7031,-8.7054,-8.7095,-8.7125,-8.7148,-8.7136,-8.6741,0,0,0,0,0,-8.6179,-8.6293,-8.636,-8.6522,-8.6561,-8.6595,-8.6659,-8.6657,-8.6733,-8.6764,-8.6811,-8.6884,-8.699,-8.7059,-8.7159,-8.7355,-8.7373,-8.7444,-8.7467,-8.7486,-8.7506,-8.7613,-8.7645,-8.7298,-8.7298,-8.7298,0,0,-8.6264,-8.6325,-8.6396,-8.6541,-8.6598,-8.6714,-8.6622,-8.6748,-8.6834,-8.6782,-8.6941,-8.6979,-8.706,-8.7242,-8.7324,-8.7278,-8.7606,-8.7505,-8.752,-8.753,-8.7632,-8.7665,-8.7694,-8.7308,-8.7306,-8.7305,0,0,-8.6479,-8.6537,-8.6679,-8.674,-8.6829,-8.6851,-8.6885,-8.6966,-8.699,-8.715,-8.7114,-8.7214,-8.7396,-8.7457,-8.7511,-8.7752,-8.7718,-8.7784,-8.7906,-8.8011,-8.8038,-8.8062,-8.8149,-8.818,-8.7803,-8.7803,-8.7804,0,-8.6573,-8.6749,-8.6754,-8.6885,-8.695,-8.6911,-8.7054,-8.7112,-8.7228,-8.7273,-8.722,-8.745,-8.7502,-8.7697,-8.7756,-8.7802,-8.784,-8.7774,-8.8034,-8.8059,-8.8081,-8.8164,-8.8196,-8.7811,-8.781,-8.7809,-8.7808,0,-8.6861,-8.6983,-8.7086,-8.7204,-8.728,-8.7416,-8.744,-8.7516,-8.7508,-8.7535,-8.7699,-8.7761,-8.7873,-8.7919,-8.7911,-8.8115,-8.8084,-8.8033,-8.7938,-8.8122,-8.8199,-8.8231,-8.7822,-8.7819,-8.7817,-8.7815,0,0,-8.7132,-8.7253,-8.7291,-8.7345,-8.7441,-8.7535,-8.7669,-8.7782,-8.7847,-8.7929,-8.8041,-8.8197,-8.8151,-8.8213,-8.8211,-8.8303,-8.8491,-8.8241,-8.8243,-8.8286,-8.8719,-8.8757,-8.8793,-8.8469,-8.8475,-8.848,-8.8712,0,-8.7356,-8.7594,-8.7604,-8.782,-8.7933,-8.7899,-8.8016,-8.8087,-8.8116,-8.8214,-8.8244,-8.8356,-8.8287,-8.8324,-8.8414,-8.8449,-8.8577,-8.8432,-8.8572,-8.8576,-8.8553,-8.8834,-8.8874,-8.9091,-8.8742,-8.8747,-8.8751,0,-8.7648,-8.7743,-8.7972,-8.8054,-8.8102,-8.8207,-8.8312,-8.8407,-8.8487,-8.8501,-8.8572,-8.8558,-8.8693,-8.8594,-8.878,-8.8681,-8.8738,-8.8764,-8.8773,-8.8786,-8.8675,-8.8855,-8.916,-8.9193,-8.8799,-8.8795,-8.8791,0,-8.7825,-8.8009,-8.8171,-8.8217,-8.8317,-8.8392,-8.8436,-8.851,-8.8578,-8.8669,-8.8713,-8.8817,-8.8874,-8.8955,-8.8968,-8.8895,-8.9155,-8.9057,-8.917,-8.917,-8.9226,-8.9223,-8.9545,-8.9263,-8.9262,-8.9262,-8.9261,0,-8.8074,-8.8215,-8.8252,-8.8351,-8.8508,-8.8517,-8.8672,-8.871,-8.8777,-8.8882,-8.8857,-8.8955,-8.8967,-8.9068,-8.9079,-8.9232,-8.9257,-8.9272,-8.9273,-8.9275,-8.9273,-8.9312,-8.9298,-8.927,-8.9268,-8.9267,-8.9265,0,-8.8298,-8.8328,-8.8502,-8.8583,-8.8607,-8.8719,-8.8788,-8.8882,-8.8909,-8.9042,-8.9073,-8.9115,-8.9233,-8.9254,-8.9392,-8.9399,-8.9582,-8.9568,-8.9557,-8.9555,-8.9667,-8.9657,-9.0027,-9.0076,-8.9761,-8.9764,-8.9766,0,-8.8455,-8.8564,-8.8658,-8.8728,-8.8777,-8.889,-8.896,-8.8972,-8.9046,-8.9146,-8.9228,-8.9344,-8.9438,-8.9627,-8.9668,-8.9774,-8.9762,-8.9884,-8.9777,-8.9776,-8.9765,-8.9758,-8.9769,-8.9905,-8.9908,-8.9911,-8.9913,0,-8.8731,-8.8741,-8.8845,-8.8955,-8.904,-8.9126,-8.9208,-8.9266,-8.9289,-8.9372,-8.9495,-8.9568,-8.971,-8.9826,-8.9931,-8.9974,-8.9948,-8.9947,-8.9979,-8.9982,-8.9971,-8.9979,-8.9614,-8.9938,-8.9936,-8.9934,-8.9933,-8.9932,-8.8927,-8.9023,-8.9105,-8.9221,-8.9285,-8.9362,-8.9455,-8.9495,-8.9598,-8.9718,-8.9718,-8.9852,-8.9928,-9.0068,-9.0118,-9.0222,-9.0182,-9.0228,-9.024,-9.0251,-9.0263,-8.9955,-9.0241,-9.024,-9.0239,-9.0239,-9.0238,0,-8.9203,-8.9255,-8.9362,-8.9479,-8.957,-8.954,-8.9629,-8.9707,-8.9826,-8.9902,-8.9995,-9.0136,-9.0248,-9.0298,-9.0408,-9.0481,-9.0472,-9.051,-9.0505,-9.0515,-9.0291,-9.0253,-9.0516,-9.0516,-9.0516,-9.0516,-9.0515,-9.0515,-8.9357,-8.9518,-8.9538,-8.973,-8.9779,-8.9913,-8.9967,-9.0037,-9.0098,-9.0257,-9.0351,-9.0385,-9.045,-9.0565,-9.0666,-9.0677,-9.0719,-9.0763,-9.0769,-9.0559,-9.0531,-9.0504,-9.0468,-9.0772,-9.0772,-9.0985,-9.0987,-9.0988]}]]